Location: Nantong Television Tower
(32.0188°N, 120.8512°E)
Time: 07:43:06
(UTC+08:00)

Vanguard 3 - Visible Passes

Search period start: 23 November 2014 00:00
Search period end: 03 December 2014 00:00
Orbit: 507 x 3278 km, 33.4° (Epoch: 22 November)

Date Brightness Start Highest point End Pass type
(mag) Time Alt. Az. Time Alt. Az. Time Alt. Az.
23 Nov 10.2 17:25:26 10° W 17:44:07 90° NNE 18:03:19 10° ESE visible
23 Nov 10.1 19:41:55 10° WNW 20:01:33 62° SSW 20:08:28 43° SSE visible
23 Nov 10.9 22:01:59 10° W 22:13:15 25° WSW 22:13:15 25° WSW visible
24 Nov 10.1 18:27:05 10° WNW 18:46:33 77° SSW 19:01:09 21° ESE visible
24 Nov 10.3 20:44:46 10° WNW 21:02:22 41° SW 21:05:57 38° SSW visible
25 Nov 10.2 17:12:57 10° W 17:31:00 87° SSW 17:50:38 10° ESE visible
25 Nov 10.3 19:29:05 10° WNW 19:48:13 57° SSW 19:58:49 29° SSE visible
25 Nov 10.9 21:49:43 10° W 22:02:21 22° SW 22:03:38 22° SW visible
26 Nov 10.2 18:14:26 10° WNW 18:33:16 72° SSW 18:51:42 10° SE visible
26 Nov 10.7 20:32:04 10° W 20:48:59 36° SW 20:56:44 26° S visible
27 Nov 10.2 17:00:33 10° WNW 17:17:50 83° SSW 17:37:49 10° ESE visible
27 Nov 10.5 19:16:22 10° WNW 19:34:48 51° SW 19:50:04 14° SSE visible
27 Nov 11.1 21:37:55 10° W 21:49:03 18° SW 21:54:56 15° SSW visible
28 Nov 10.4 18:01:52 10° WNW 18:19:56 66° SSW 18:38:45 10° SE visible
28 Nov 11.0 20:19:36 10° W 20:35:34 32° SW 20:48:35 12° S visible
29 Nov 10.3 16:48:12 10° WNW 17:04:40 79° SSW 17:24:49 10° ESE visible
29 Nov 10.7 19:03:48 10° WNW 19:21:22 46° SW 19:38:18 10° SSE visible
29 Nov 11.4 21:26:50 10° WSW 21:35:47 15° SW 21:43:59 10° SSW visible
30 Nov 10.5 17:49:24 10° WNW 18:06:35 60° SSW 18:25:36 10° SE visible
30 Nov 11.2 20:07:25 10° W 20:22:09 27° SW 20:35:51 10° S visible
01 Dec 11.0 18:51:25 10° W 19:07:57 41° SW 19:24:49 10° SSE visible
01 Dec 11.6 21:17:22 10° WSW 21:22:36 12° SW 21:27:38 10° SW visible
02 Dec 10.7 17:37:03 10° WNW 17:53:16 54° SSW 18:12:13 10° SE visible
02 Dec 11.4 19:55:37 10° W 20:08:49 23° SW 20:21:41 10° S visible
